User: anonymous   Login
Location: Unspecified
(0.0000°N, 0.0000°E)
Time: 00:12:39
(UTC+00:00)
Language:

OPTUS D1 - Orbit

View from above orbital plane
View from above orbital plane
View from above satellite
View from above satellite

Ground track
Ground track

The orbit data is extracted from the following two-line orbital elements,

1 29495U 06043B   17289.85257762 -.00000135  00000-0  00000+0 0  9990
2 29495   0.0576  87.3791 0003331 121.4277 283.6825  1.00271807 40406
Epoch (UTC): 16 October 2017 20:27:42
Eccentricity: 0.0003331
inclination: 0.0576°
perigee height: 35772 km
apogee height: 35800 km
right ascension of ascending node: 87.3791°
argument of perigee: 121.4277°
revolutions per day: 1.00271807
mean anomaly at epoch: 283.6825°
orbit number at epoch: 4040

The dashed part of the orbit path shows where the satellite is in the earth's shadow,  

DLR